Date String (YYYY-MM-DD hh:mm:ss) UTC,Instrument flags,Ambient pressure (hPa),Sample flow (lpm),Bypass flow (lpm),Sample temperature (°C),Ambient temperature (°C),ASC tube jacket temperature (°C),LED temperature (°C),Box temperature (°C),Sample RH (%),Span deviation,Mass concentration (μg/m³),Mass concentration (μg/m³),Mass concentration (μg/m³)
DateTimeUTC,F1_M11,P_M11,Q1_M11,Q2_M11,T1_M11,T2_M11,T3_M11,T4_M11,T5_M11,U1_M11,ZSPAN_M11,X0_M11,X2_M11,X1_M11
2022-11-10 19:00:00,,0820.4,5.01,0.00,23.8,22.8,00.0,32.5,25.7,06.4,0000.0,0002.74,0001.15,0000.80
2022-11-10 19:01:00,,0820.6,4.99,0.00,23.8,22.8,00.0,32.6,25.7,06.3,0000.0,0002.54,0001.16,0000.80
2022-11-10 19:02:00,,0820.5,5.01,0.00,23.8,22.7,00.0,32.6,25.7,06.1,0000.0,0002.16,0001.04,0000.73
2022-11-10 19:03:00,,0820.6,4.98,0.00,23.8,22.8,00.0,32.6,25.7,06.3,0000.0,0002.10,0001.00,0000.68
2022-11-10 19:04:00,,0820.6,5.01,0.00,23.8,22.7,00.0,32.6,25.7,06.2,0000.0,0002.11,0000.99,0000.68
2022-11-10 19:05:00,,0820.6,5.01,0.00,23.8,22.7,00.0,32.6,25.7,06.1,0000.0,0002.09,0000.98,0000.67
2022-11-10 19:06:00,,0820.6,5.00,0.00,23.8,22.7,00.0,32.6,25.7,06.3,0000.0,0001.80,0000.86,0000.61
2022-11-10 19:07:00,,0820.6,4.99,0.00,23.8,22.8,00.0,32.6,25.7,06.2,0000.0,0001.68,0000.84,0000.58
2022-11-10 19:08:00,,0820.7,5.00,0.00,23.8,22.8,00.0,32.6,25.7,06.2,0000.0,0001.75,0000.86,0000.57
2022-11-10 19:09:00,,0820.6,5.01,0.00,23.9,22.8,00.0,32.6,25.7,06.3,0000.0,0001.66,0000.81,0000.52
2022-11-10 19:10:00,,0820.7,4.99,0.00,23.9,22.8,00.0,32.6,25.7,06.2,0000.0,0001.45,0000.68,0000.40
2022-11-10 19:11:00,,0820.6,5.00,0.00,23.9,22.8,00.0,32.6,25.7,06.3,0000.0,0001.91,0000.94,0000.57
2022-11-10 19:12:00,,0820.7,5.01,0.00,23.9,22.8,00.0,32.7,25.7,06.1,0000.0,0002.29,0001.14,0000.71
2022-11-10 19:13:00,,0820.6,4.99,0.00,23.9,22.8,00.0,32.7,25.7,06.1,0000.0,0003.38,0001.93,0001.39
2022-11-10 19:14:00,,0820.7,5.00,0.00,23.9,22.8,00.0,32.7,25.7,06.3,0000.0,0003.49,0001.98,0001.43
2022-11-10 19:15:00,,0820.6,5.00,0.00,23.9,22.8,00.0,32.7,25.7,06.5,0000.0,0003.44,0001.97,0001.43
2022-11-10 19:16:00,,0820.5,5.00,0.00,23.9,22.8,00.0,32.7,25.7,06.5,0000.0,0003.41,0001.96,0001.43
2022-11-10 19:17:00,,0820.5,5.01,0.00,23.9,22.7,00.0,32.7,25.7,06.5,0000.0,0003.36,0001.94,0001.42
2022-11-10 19:18:00,,0820.7,5.00,0.00,23.9,22.7,00.0,32.7,25.7,06.5,0000.0,0003.85,0002.29,0001.65
2022-11-10 19:19:00,,0820.6,5.00,0.00,23.9,22.7,00.0,32.7,25.7,06.4,0000.0,0004.82,0002.91,0002.14
2022-11-10 19:20:00,,0820.6,5.00,0.00,23.9,22.7,00.0,32.7,25.7,06.4,0000.0,0004.88,0002.92,0002.13
2022-11-10 19:21:00,,0820.5,4.99,0.00,23.9,22.7,00.0,32.7,25.7,06.5,0000.0,0004.84,0002.89,0002.09
2022-11-10 19:22:00,,0820.3,5.00,0.00,23.9,22.6,00.0,32.7,25.7,06.4,0000.0,0004.35,0002.62,0001.90
2022-11-10 19:23:00,,0820.2,5.01,0.00,23.9,22.6,00.0,32.7,25.7,06.4,0000.0,0004.20,0002.43,0001.74
2022-11-10 19:24:00,,0820.3,4.99,0.00,23.9,22.6,00.0,32.7,25.7,06.3,0000.0,0004.65,0001.69,0001.08
2022-11-10 19:25:00,,0820.2,4.99,0.00,23.9,22.5,00.0,32.7,25.7,06.3,0000.0,0004.59,0001.63,0001.05
2022-11-10 19:26:00,,0820.3,5.02,0.00,23.9,22.4,00.0,32.7,25.6,06.3,0000.0,0004.62,0001.63,0001.05
2022-11-10 19:27:00,,0820.2,5.00,0.00,23.9,22.4,00.0,32.7,25.6,06.4,0000.0,0004.76,0001.66,0001.05
2022-11-10 19:28:00,,0820.4,5.00,0.00,23.9,22.4,00.0,32.7,25.6,06.3,0000.0,0004.87,0001.69,0001.05
2022-11-10 19:29:00,,0820.5,4.99,0.00,23.9,22.4,00.0,32.7,25.6,06.6,0000.0,0004.23,0001.28,0000.78
2022-11-10 19:30:00,,0820.4,5.00,0.00,23.9,22.4,00.0,32.7,25.6,06.5,0000.0,0003.02,0000.56,0000.26
2022-11-10 19:31:00,,0820.4,5.00,0.00,23.9,22.4,00.0,32.7,25.6,06.4,0000.0,0002.90,0000.51,0000.24
2022-11-10 19:32:00,,0820.3,5.00,0.00,23.8,22.3,00.0,32.7,25.6,06.6,0000.0,0003.22,0000.48,0000.24
2022-11-10 19:33:00,,0820.4,5.00,0.00,23.8,22.3,00.0,32.7,25.6,06.7,0000.0,0003.40,0000.47,0000.24
2022-11-10 19:34:00,,0820.3,5.00,0.00,23.8,22.3,00.0,32.7,25.6,06.8,0000.0,0003.13,0000.45,0000.23
2022-11-10 19:35:00,,0820.1,5.01,0.00,23.8,22.3,00.0,32.7,25.6,06.8,0000.0,0001.81,0000.48,0000.23
2022-11-10 19:36:00,,0820.0,5.00,0.00,23.8,22.3,00.0,32.7,25.6,06.8,0000.0,0004.48,0000.66,0000.25
2022-11-10 19:37:00,,0820.0,4.99,0.00,23.8,22.2,00.0,32.7,25.5,06.7,0000.0,0005.77,0000.84,0000.26
2022-11-10 19:38:00,,0820.0,4.99,0.00,23.8,22.2,00.0,32.7,25.5,06.7,0000.0,0008.15,0000.94,0000.27
2022-11-10 19:39:00,,0820.2,5.01,0.00,23.7,22.1,00.0,32.7,25.5,06.7,0000.0,0010.02,0001.13,0000.28
2022-11-10 19:40:00,,0820.3,5.00,0.00,23.7,22.1,00.0,32.7,25.5,06.7,0000.0,0010.44,0001.25,0000.30
2022-11-10 19:41:00,,0820.3,4.99,0.00,23.7,22.1,00.0,32.7,25.5,06.6,0000.0,0013.48,0002.00,0000.36
2022-11-10 19:42:00,,0820.1,5.00,0.00,23.7,22.1,00.0,32.6,25.5,06.7,0000.0,0015.70,0002.60,0000.42
2022-11-10 19:43:00,,0820.1,5.00,0.00,23.7,22.1,00.0,32.6,25.4,06.7,0000.0,0016.86,0002.82,0000.44
2022-11-10 19:44:00,,0820.0,5.00,0.00,23.7,22.1,00.0,32.6,25.4,06.6,0000.0,0018.86,0003.01,0000.45
2022-11-10 19:45:00,,0820.1,5.01,0.00,23.7,22.0,00.0,32.6,25.4,06.5,0000.0,0020.26,0003.12,0000.46
2022-11-10 19:46:00,,0820.2,5.01,0.00,23.6,22.0,00.0,32.6,25.4,06.5,0000.0,0020.33,0003.09,0000.46
2022-11-10 19:47:00,,0820.3,5.00,0.00,23.6,22.0,00.0,32.6,25.3,06.5,0000.0,0019.10,0002.93,0000.45
2022-11-10 19:48:00,,0820.5,4.99,0.00,23.6,22.0,00.0,32.6,25.3,06.6,0000.0,0018.23,0002.75,0000.44
2022-11-10 19:49:00,,0820.4,5.00,0.00,23.6,22.0,00.0,32.5,25.3,06.7,0000.0,0016.81,0002.64,0000.43
2022-11-10 19:50:00,,0820.4,5.01,0.00,23.6,22.0,00.0,32.5,25.3,06.8,0000.0,0014.68,0002.42,0000.42
2022-11-10 19:51:00,,0820.4,4.99,0.00,23.6,21.9,00.0,32.5,25.3,06.7,0000.0,0014.31,0002.37,0000.41
2022-11-10 19:52:00,,0820.4,4.99,0.00,23.6,21.9,00.0,32.5,25.3,06.7,0000.0,0012.06,0001.73,0000.35
2022-11-10 19:53:00,,0820.3,5.02,0.00,23.6,21.9,00.0,32.5,25.3,06.8,0000.0,0009.63,0001.09,0000.29
2022-11-10 19:54:00,,0820.4,5.00,0.00,23.5,21.9,00.0,32.5,25.3,06.7,0000.0,0007.55,0000.72,0000.26
2022-11-10 19:55:00,,0820.5,5.00,0.00,23.5,21.9,00.0,32.5,25.3,06.7,0000.0,0005.33,0000.57,0000.24
2022-11-10 19:56:00,,0820.3,4.99,0.00,23.5,21.9,00.0,32.5,25.2,06.8,0000.0,0001.47,0000.37,0000.23
2022-11-10 19:57:00,,0820.1,5.00,0.00,23.5,21.9,00.0,32.4,25.3,06.8,0000.0,0001.21,0000.36,0000.22
2022-11-10 19:58:00,,0820.2,5.00,0.00,23.5,21.9,00.0,32.4,25.2,06.8,0000.0,0001.31,0000.38,0000.21
2022-11-10 19:59:00,,0820.5,4.99,0.00,23.5,21.8,00.0,32.4,25.2,06.8,0000.0,0001.26,0000.37,0000.21
